SCP
0 0 0 0 0 0 0 0 0 0 0 0 0 0 0 0 0 0 0 0 0 0 0 0 0 0 0 0 0 0 0 0 0 -0 -0 0 0 -0 -0 -0 -0 -0 -0 -0 -0 -0 -0 -0 -0
0 0 0 0 0 0 0 0 0 0 0 0 0 0 0 0 0 0 0 0 0 0 0 0 0 0 0 0 0 0 0 0 0 0 0 0 0 -0 -0 -0 0 0 -0 -0 -0 -0 -0 -0 -0
0 0 0 0 0 0 0 0 0 0 0 0 0 0 0 0 0 0 0 0 0 0 0 0 0 0 0 0 0 0 0 0 0 0 0 0 0 0 0 0 0 -0 -0 -0 -0 -0 -0 0 0
0 0 0 0 0 0 0 0 0 0 0 0 0 0 0 0 0 0 0 1 1 1 0 0 0 0 0 0 0 0 0 0 0 0 0 0 0 0 0 0 0 0 0 0 0 0 0 0 0
0 0 0 0 0 0 0 0 0 0 0 0 0 0 0 0 0 0 1 1 1 1 0 0 0 0 0 0 0 0 0 0 0 0 0 0 0 0 0 0 0 0 0 0 0 0 0 0 0
0 0 0 0 0 0 0 0 0 0 0 0 0 0 0 0 0 0 1 1 0 0 1 1 0 0 0 0 0 0 0 0 0 0 0 0 0 0 0 0 0 0 0 0 0 0 0 0 0
0 0 0 0 0 0 0 0 0 0 0 0 0 0 0 0 0 0 1 1 0 0 1 1 0 0 0 0 0 0 0 0 0 0 0 0 0 0 0 0 0 0 0 0 0 0 0 0 0
0 0 0 0 0 0 0 0 0 0 0 0 0 0 0 0 0 1 1 0 0 0 0 0 1 0 0 0 0 0 0 0 0 0 0 0 0 0 0 0 0 0 0 0 0 0 0 0 0
0 0 0 0 0 0 0 0 0 0 0 0 0 0 0 0 0 1 0 0 0 0 0 0 1 0 0 0 0 0 0 0 0 0 0 0 0 0 0 0 0 0 0 0 0 0 0 0 0
0 0 0 0 0 0 0 0 0 0 0 0 0 0 0 0 0 0 0 0 0 0 0 0 0 0 0 0 0 0 0 0 0 0 0 0 0 0 0 0 0 0 0 0 0 0 0 0 0
0 0 0 0 0 0 0 0 0 0 0 0 0 0 0 0 0 0 0 0 0 0 1 0 0 0 0 0 0 0 0 0 0 0 0 0 0 0 0 0 0 0 0 0 0 0 0 0 0
0 0 0 0 0 0 0 0 0 0 0 0 0 0 0 0 0 0 0 0 0 0 0 0 0 0 0 0 0 0 0 0 0 0 0 0 0 0 0 0 0 0 0 0 0 0 0 0 0
0 0 0 0 0 0 0 0 0 0 -0 0 0 0 0 0 0 0 0 0 0 0 0 0 0 0 0 0 0 0 0 0 0 0 0 0 0 0 0 0 0 0 0 0 0 0 0 0 0
0 0 0 0 0 0 0 0 0 0 0 0 0 0 0 0 0 0 0 0 0 0 0 0 0 0 0 0 0 0 0 0 0 0 0 0 0 0 0 0 0 0 0 0 0 0 0 0 0
0 0 0 0 0 0 0 0 0 0 0 0 0 0 0 0 0 0 0 0 0 0 0 0 0 0 0 0 0 0 0 0 0 0 0 0 0 0 0 0 0 0 0 0 0 0 0 0 0
0 0 0 0 0 0 0 0 0 0 -0 0 0 0 0 0 0 0 0 0 0 0 0 0 0 0 0 0 0 0 0 0 0 0 0 0 0 0 0 0 0 0 0 0 0 0 0 0 0
0 0 0 0 0 0 0 0 0 0 0 -0 0 0 0 0 0 0 0 0 0 0 0 0 0 0 0 0 0 0 0 0 0 0 0 0 0 0 0 0 0 0 0 0 0 0 0 0 0
0 0 0 0 0 0 0 0 -0 0 0 0 0 0 0 0 0 0 0 0 0 0 0 0 0 0 0 0 0 0 0 0 0 0 0 0 0 0 0 0 0 0 0 0 0 0 0 0 0
0 0 0 0 0 0 0 0 0 0 0 0 0 0 0 0 0 0 0 0 0 0 0 0 0 0 0 0 0 0 0 0 0 0 0 0 0 0 0 0 0 0 0 0 0 0 0 0 0
0 0 0 0 0 0 0 0 0 0 0 0 0 0 0 0 0 0 0 0 0 0 0 0 0 0 0 0 0 0 0 0 0 0 0 0 0 0 0 0 0 0 0 0 0 0 0 0 0
0 0 0 0 0 0 0 0 0 0 0 0 0 0 0 0 0 0 0 0 0 0 0 0 0 0 0 0 0 0 0 0 0 0 0 0 0 0 0 0 0 0 0 0 0 0 0 0 0
0 0 0 0 0 0 0 0 0 0 0 0 0 0 0 0 0 0 0 0 0 0 0 0 0 0 0 0 0 0 0 0 0 0 0 0 0 0 0 0 0 0 0 0 0 0 0 0 0
0 0 0 0 0 0 0 0 0 0 0 0 0 0 0 0 0 0 0 0 0 0 0 0 0 0 0 0 0 0 0 0 0 0 0 0 0 0 0 0 0 0 0 0 0 0 0 0 0
0 0 0 0 0 0 0 0 0 0 0 0 0 0 0 0 0 0 0 0 0 0 0 0 0 0 0 0 0 0 0 0 0 0 0 0 0 0 0 0 0 0 0 0 0 0 0 0 0
0 0 0 0 0 0 0 0 0 0 0 0 0 0 0 0 0 0 0 0 0 0 0 0 0 0 0 0 0 0 0 0 0 0 0 0 0 0 0 0 0 0 0 0 0 0 0 0 0
0 0 0 0 0 0 0 0 0 0 0 0 0 0 0 0 0 0 0 0 0 0 0 0 0 0 0 0 0 0 0 0 0 0 0 0 0 0 0 0 0 0 0 0 0 0 0 0 0
0 0 0 0 0 0 0 0 0 0 0 0 0 0 0 0 0 0 0 0 0 0 0 0 0 0 0 0 0 0 0 0 0 0 0 0 0 0 0 0 0 0 0 0 0 0 0 0 0
0 0 0 0 0 0 0 0 0 0 0 0 0 0 0 0 0 0 0 0 0 0 0 0 0 0 0 0 0 0 0 0 0 0 0 0 0 0 0 0 0 0 0 0 0 0 0 0 0
0 0 0 0 0 0 0 0 0 0 0 0 0 0 0 0 0 0 0 0 0 0 0 0 0 0 0 0 0 0 0 0 0 0 0 0 0 0 0 0 0 0 0 0 0 0 0 0 0
0 0 0 0 0 0 0 0 0 0 0 0 0 0 0 0 0 0 0 0 -0 -0 -0 -0 -0 -0 -0 -0 0 -0 0 0 0 0 0 0 0 0 0 0 0 0 0 0 0 0 0 0 0
Wind_Speed_500mb
15 12 9 7 6 8 6 12 3 11 13 6 22 11 12 9 5 7 4 13 19 24 34 35 32 31 31 33 32 34 33 32 32 30 28 25 23 21 20 18 16 14 12 12 13 9 8 8 7
13 11 9 8 8 4 9 10 11 11 11 36 30 12 7 9 9 5 18 8 14 18 30 34 32 31 32 33 33 32 33 32 30 30 29 26 24 22 20 19 18 18 17 17 17 15 14 9 6
10 17 9 7 7 11 9 8 16 16 25 37 12 6 4 5 7 5 9 10 10 15 24 32 31 30 31 32 32 30 30 30 29 28 29 29 27 25 22 22 23 22 18 15 14 11 8 5 4
11 11 6 6 12 9 9 6 3 20 37 13 16 14 7 9 3 3 9 10 13 16 25 30 29 28 31 32 31 29 28 28 28 29 26 24 24 25 24 22 18 12 7 6 7 6 5 4 3
20 6 4 5 7 7 8 11 13 11 20 38 33 13 10 8 11 7 6 9 12 19 28 30 29 29 30 31 30 29 28 29 29 27 26 25 24 24 23 18 14 11 8 6 5 5 4 3 3
7 5 4 9 7 9 12 29 13 9 30 47 15 14 11 11 17 9 7 8 13 15 23 27 29 28 30 30 30 30 30 26 27 29 26 25 24 23 20 17 14 10 7 5 4 4 5 6 8
10 7 4 2 5 6 8 14 7 10 14 21 20 5 9 17 12 11 6 11 15 22 19 24 29 32 31 32 32 29 29 27 28 29 28 26 24 22 19 15 12 9 7 6 6 7 9 10 11
7 8 3 5 7 10 3 15 10 14 10 32 10 7 4 11 14 13 14 13 18 23 20 23 28 31 33 37 34 34 33 32 30 29 27 26 23 20 17 14 12 9 7 7 7 9 11 13 15
9 6 5 8 7 8 3 10 9 25 12 28 17 16 25 15 17 18 18 19 23 30 28 27 30 31 33 38 39 37 36 34 31 26 23 23 22 20 17 14 11 9 8 9 10 13 17 20 21
8 6 13 10 6 7 11 6 23 13 30 14 6 13 32 17 15 24 23 21 27 26 31 30 33 32 33 39 39 37 36 35 34 30 25 23 21 19 16 13 11 11 11 12 14 18 20 20 19
8 9 9 9 20 18 11 13 6 5 11 16 15 40 41 32 8 21 21 23 23 22 29 30 24 27 31 37 39 36 38 39 41 36 32 24 22 20 18 15 13 12 13 15 17 15 15 16 17
3 7 5 9 8 16 12 20 12 21 31 39 40 37 40 35 21 19 22 27 26 29 29 29 35 41 35 34 36 37 38 41 42 37 33 26 25 23 20 17 14 13 14 15 13 12 14 16 15
5 5 12 20 34 28 26 22 21 36 42 38 38 43 41 23 28 27 27 33 32 37 34 33 37 43 45 41 32 33 44 43 47 39 37 36 30 26 22 19 16 14 13 12 12 12 13 14 13
5 13 23 24 35 27 12 9 8 13 33 24 22 23 21 18 23 31 39 31 39 43 42 38 43 46 42 48 38 44 45 39 43 44 42 40 36 29 23 19 19 15 10 13 13 13 13 12 11
8 11 14 6 7 5 4 8 7 10 36 31 27 19 23 22 24 25 33 43 33 36 40 41 42 44 46 42 47 47 43 49 44 38 44 42 38 33 22 18 20 16 10 15 15 14 13 11 11
6 6 8 9 11 13 3 12 10 25 35 34 26 23 28 25 20 21 22 37 42 41 38 40 42 43 46 47 50 53 52 47 43 45 47 42 39 35 24 20 22 16 11 18 16 16 14 12 11
9 5 4 12 9 6 11 13 14 47 40 24 20 18 15 16 12 14 16 13 33 38 37 35 35 38 39 40 45 51 53 47 47 53 52 48 45 37 29 25 19 15 19 23 19 17 14 12 12
7 4 4 6 8 13 10 11 14 40 39 33 34 33 28 25 23 17 13 9 14 28 44 42 38 39 39 38 40 44 48 48 52 56 58 56 45 32 32 31 15 23 28 24 19 17 14 13 12
5 2 5 8 11 5 6 10 13 25 40 38 39 40 37 36 28 20 16 9 8 19 29 33 40 42 43 43 40 38 37 46 50 57 57 60 38 38 36 25 28 29 27 21 20 19 16 14 14
4 2 6 8 4 2 8 3 4 15 21 32 33 41 44 41 39 34 26 17 10 5 18 29 29 35 39 42 46 41 37 42 49 39 54 58 48 42 34 23 29 26 24 25 24 21 19 18 18
6 7 8 9 9 3 10 5 7 9 26 30 37 36 42 45 50 49 45 39 25 13 6 12 22 26 30 35 41 44 42 35 38 38 54 60 50 48 40 31 33 27 29 27 26 23 22 21 21
6 8 6 7 5 5 5 8 9 7 9 15 29 37 41 47 51 54 55 51 41 33 24 12 7 9 12 20 30 37 39 39 34 33 42 59 59 50 46 34 36 35 32 30 28 26 24 24 25
11 5 4 2 6 4 3 4 8 14 5 4 14 28 36 41 48 54 58 59 54 41 33 24 9 1 10 10 19 29 32 34 35 33 34 46 47 43 34 38 44 33 36 33 31 29 27 26 28
7 7 12 8 5 3 14 13 8 11 12 8 3 22 31 37 42 48 52 54 56 55 46 35 24 14 5 15 14 15 25 32 33 32 34 38 44 44 42 42 39 46 38 36 34 33 31 29 30
5 10 6 9 6 12 6 7 12 4 14 14 13 17 26 32 37 43 49 53 55 58 56 52 39 26 16 7 16 19 20 24 29 31 35 38 43 44 51 42 48 50 34 40 38 36 34 31 32
10 14 11 13 5 7 3 11 8 7 26 23 15 14 20 28 33 37 42 46 48 50 51 50 46 42 31 16 10 17 22 29 29 30 32 36 38 39 40 40 34 42 42 43 42 40 36 33 33
6 7 8 13 1 5 7 5 4 9 11 17 11 11 16 22 28 30 33 38 42 44 46 46 44 41 37 34 24 18 21 27 30 30 29 30 32 30 35 40 38 49 48 45 46 43 37 35 34
7 9 4 4 4 10 8 9 9 21 19 12 8 2 8 15 20 24 26 30 33 36 37 37 38 40 38 34 30 28 23 25 29 33 31 32 31 28 32 41 43 46 45 49 49 44 38 36 34
2 2 3 4 9 9 2 10 5 24 21 19 16 10 2 10 16 19 20 24 27 30 31 33 34 33 31 33 32 29 28 24 26 31 33 33 34 31 32 33 47 47 49 53 49 45 39 36 33
5 4 3 7 10 5 5 13 15 11 28 34 19 13 4 9 14 18 19 22 24 29 32 33 33 34 34 33 31 32 31 30 28 28 32 36 36 36 34 34 39 49 49 53 51 45 40 36 31
Wind_Direction_500mb
232 214 181 127 62 57 253 245 238 278 320 3 319 319 263 273 191 235 218 123 154 196 188 185 178 178 182 178 176 176 177 180 176 177 178 180 178 173 170 171 167 162 163 157 153 142 145 160 164
228 193 157 103 110 146 263 278 248 248 284 319 316 253 250 269 257 290 151 147 159 191 194 190 180 179 182 179 177 176 175 178 181 180 177 176 176 175 172 165 153 141 133 135 137 150 160 172 171
206 168 145 132 169 190 213 234 260 292 308 318 298 262 241 241 245 296 200 188 163 180 198 191 184 181 182 181 180 180 177 176 180 180 178 179 176 173 167 158 150 142 143 157 155 164 170 187 217
160 150 91 125 225 258 209 247 198 323 325 328 337 296 247 218 235 222 206 195 180 178 185 187 185 180 185 183 181 178 179 179 179 179 178 169 163 167 168 169 169 174 175 162 159 167 188 214 255
162 133 89 262 263 276 266 276 291 307 302 291 310 284 281 217 209 214 223 209 194 182 182 185 182 184 186 185 182 180 182 177 173 162 166 167 176 173 174 177 171 174 174 174 172 194 217 250 285
118 106 82 247 277 284 295 272 273 251 289 295 298 257 255 237 207 216 214 200 194 183 186 189 188 187 186 185 185 182 182 184 175 169 175 183 181 179 179 177 182 188 185 185 187 223 265 284 290
125 95 196 265 276 307 254 323 239 300 308 312 291 245 271 235 211 199 189 197 189 178 182 197 199 190 184 190 185 186 190 191 183 180 185 187 185 183 185 188 189 193 196 217 247 268 283 289 295
129 93 91 253 227 258 31 351 338 1 307 338 319 290 315 323 221 227 223 222 197 200 191 196 206 202 192 189 191 190 190 191 196 199 191 190 190 191 191 194 199 214 229 249 265 278 285 292 297
120 67 214 239 186 254 355 20 331 332 306 342 358 14 339 318 197 216 220 215 216 211 209 201 205 206 204 195 197 199 198 198 201 207 196 191 193 195 200 207 216 233 250 265 279 289 295 298 300
114 158 216 218 235 272 312 299 331 327 323 322 323 10 5 355 193 226 233 232 232 231 225 213 207 214 212 210 204 200 203 205 210 210 202 198 200 204 212 222 234 247 260 271 282 290 294 297 302
174 208 210 249 276 329 295 305 280 315 307 295 297 310 321 341 265 242 239 253 256 244 236 239 222 217 226 225 217 210 209 213 216 216 215 212 217 216 219 226 235 252 265 278 286 288 292 298 302
277 267 281 298 307 317 304 312 290 252 264 294 296 301 301 316 308 284 271 257 253 251 246 240 234 238 275 239 227 230 223 225 231 224 225 226 227 226 226 224 231 246 270 282 282 286 295 299 302
207 265 272 278 290 284 274 265 272 285 299 287 281 281 293 294 290 283 284 258 252 244 250 245 239 243 239 235 222 230 240 233 243 236 235 227 229 227 223 232 232 250 266 275 278 286 293 298 301
302 282 280 289 288 281 258 282 355 13 0 342 296 286 301 334 330 276 264 265 252 245 247 246 244 246 246 248 237 240 242 241 243 251 245 239 224 219 217 231 248 244 264 275 280 289 294 298 300
299 316 327 293 338 319 287 327 204 317 348 359 2 350 329 331 315 297 261 245 248 254 251 247 245 243 250 248 256 249 251 240 243 245 248 246 236 216 214 230 256 252 249 282 283 287 292 296 296
11 54 3 307 3 13 38 274 262 336 343 335 341 325 320 325 315 303 295 251 238 238 248 250 251 244 250 253 255 252 255 249 261 254 246 251 231 212 205 229 250 241 273 284 283 283 285 290 286
10 250 245 321 63 50 61 284 345 342 339 356 26 20 357 344 327 317 314 287 244 240 242 248 251 257 254 252 252 254 257 246 264 261 242 238 215 207 198 222 239 272 271 272 272 273 279 284 278
219 227 270 267 312 4 320 278 1 22 47 40 37 38 40 35 26 9 339 310 249 243 244 244 247 257 253 249 251 254 254 241 249 258 246 244 210 205 221 212 225 262 256 254 259 266 274 275 268
113 164 258 265 282 259 256 346 19 31 38 26 23 25 35 38 36 34 23 353 246 234 236 240 239 244 247 243 249 256 254 245 246 248 243 248 214 230 233 231 237 240 247 256 262 269 268 261 250
156 225 267 284 253 282 356 68 81 37 47 40 23 21 21 37 44 43 38 37 30 262 245 243 243 235 241 244 247 256 260 253 248 263 252 239 224 216 213 232 249 249 258 263 267 268 264 257 246
220 193 199 218 328 314 356 266 214 73 54 50 48 47 47 39 41 43 43 39 36 31 338 270 247 237 240 244 246 253 257 252 252 254 247 239 223 212 199 214 247 251 257 259 263 264 262 259 254
291 226 192 168 114 231 60 276 213 129 60 34 37 42 41 45 49 47 46 45 42 36 24 344 280 239 280 265 264 256 257 267 276 272 270 243 239 209 211 208 239 245 255 260 262 262 263 262 259
232 138 138 113 113 46 269 77 278 137 146 32 17 46 45 45 46 46 47 48 47 47 42 36 32 176 217 244 264 259 262 265 268 270 270 263 242 230 224 220 234 245 257 261 263 264 262 262 260
133 108 46 42 81 354 218 174 229 190 176 170 65 54 47 44 46 48 47 48 49 49 50 50 47 43 318 257 252 261 264 265 269 275 273 269 259 242 232 231 241 251 252 260 262 262 262 264 263
106 76 329 348 7 225 346 149 257 145 131 145 136 68 50 45 42 41 40 40 40 43 44 45 44 41 31 331 298 275 258 269 277 280 280 280 275 265 242 222 243 240 253 262 262 262 262 265 268
187 159 163 214 211 268 104 233 280 124 133 131 113 69 53 48 42 38 36 35 35 35 36 38 39 40 30 12 347 291 285 265 264 271 277 282 283 280 263 240 229 247 260 262 263 262 263 267 269
194 184 169 109 108 42 238 300 177 142 156 153 130 64 47 38 36 36 33 30 28 26 26 27 26 28 28 26 10 326 304 282 269 264 263 271 280 279 262 250 230 251 260 258 261 259 262 267 269
170 152 126 4 157 236 279 279 251 194 192 180 191 120 42 29 27 27 25 24 22 19 17 15 13 15 13 12 11 3 334 297 286 272 264 259 265 269 266 253 254 237 259 254 256 257 259 267 271
59 248 36 139 154 182 242 255 333 212 178 165 196 207 322 5 7 6 7 7 7 7 6 5 3 3 4 360 355 353 350 326 295 282 267 252 248 250 259 259 256 236 257 254 252 256 258 264 267
285 288 174 171 237 224 156 259 340 145 150 165 191 212 322 323 332 339 336 343 350 354 357 360 356 354 353 352 347 339 338 337 319 288 274 264 248 245 251 254 253 247 239 253 248 252 257 261 264
Wind_Speed_850mb
15 12 9 7 6 8 6 12 3 11 13 6 22 11 12 9 5 7 4 13 19 24 34 35 32 31 31 33 32 34 33 32 32 30 28 25 23 21 20 18 16 14 12 12 13 9 8 8 7
13 11 9 8 8 4 9 10 11 11 11 36 30 12 7 9 9 5 18 8 14 18 30 34 32 31 32 33 33 32 33 32 30 30 29 26 24 22 20 19 18 18 17 17 17 15 14 9 6
10 17 9 7 7 11 9 8 16 16 25 37 12 6 4 5 7 5 9 10 10 15 24 32 31 30 31 32 32 30 30 30 29 28 29 29 27 25 22 22 23 22 18 15 14 11 8 5 4
11 11 6 6 12 9 9 6 3 20 37 13 16 14 7 9 3 3 9 10 13 16 25 30 29 28 31 32 31 29 28 28 28 29 26 24 24 25 24 22 18 12 7 6 7 6 5 4 3
20 6 4 5 7 7 8 11 13 11 20 38 33 13 10 8 11 7 6 9 12 19 28 30 29 29 30 31 30 29 28 29 29 27 26 25 24 24 23 18 14 11 8 6 5 5 4 3 3
7 5 4 9 7 9 12 29 13 9 30 47 15 14 11 11 17 9 7 8 13 15 23 27 29 28 30 30 30 30 30 26 27 29 26 25 24 23 20 17 14 10 7 5 4 4 5 6 8
10 7 4 2 5 6 8 14 7 10 14 21 20 5 9 17 12 11 6 11 15 22 19 24 29 32 31 32 32 29 29 27 28 29 28 26 24 22 19 15 12 9 7 6 6 7 9 10 11
7 8 3 5 7 10 3 15 10 14 10 32 10 7 4 11 14 13 14 13 18 23 20 23 28 31 33 37 34 34 33 32 30 29 27 26 23 20 17 14 12 9 7 7 7 9 11 13 15
9 6 5 8 7 8 3 10 9 25 12 28 17 16 25 15 17 18 18 19 23 30 28 27 30 31 33 38 39 37 36 34 31 26 23 23 22 20 17 14 11 9 8 9 10 13 17 20 21
8 6 13 10 6 7 11 6 23 13 30 14 6 13 32 17 15 24 23 21 27 26 31 30 33 32 33 39 39 37 36 35 34 30 25 23 21 19 16 13 11 11 11 12 14 18 20 20 19
8 9 9 9 20 18 11 13 6 5 11 16 15 40 41 32 8 21 21 23 23 22 29 30 24 27 31 37 39 36 38 39 41 36 32 24 22 20 18 15 13 12 13 15 17 15 15 16 17
3 7 5 9 8 16 12 20 12 21 31 39 40 37 40 35 21 19 22 27 26 29 29 29 35 41 35 34 36 37 38 41 42 37 33 26 25 23 20 17 14 13 14 15 13 12 14 16 15
5 5 12 20 34 28 26 22 21 36 42 38 38 43 41 23 28 27 27 33 32 37 34 33 37 43 45 41 32 33 44 43 47 39 37 36 30 26 22 19 16 14 13 12 12 12 13 14 13
5 13 23 24 35 27 12 9 8 13 33 24 22 23 21 18 23 31 39 31 39 43 42 38 43 46 42 48 38 44 45 39 43 44 42 40 36 29 23 19 19 15 10 13 13 13 13 12 11
8 11 14 6 7 5 4 8 7 10 36 31 27 19 23 22 24 25 33 43 33 36 40 41 42 44 46 42 47 47 43 49 44 38 44 42 38 33 22 18 20 16 10 15 15 14 13 11 11
6 6 8 9 11 13 3 12 10 25 35 34 26 23 28 25 20 21 22 37 42 41 38 40 42 43 46 47 50 53 52 47 43 45 47 42 39 35 24 20 22 16 11 18 16 16 14 12 11
9 5 4 12 9 6 11 13 14 47 40 24 20 18 15 16 12 14 16 13 33 38 37 35 35 38 39 40 45 51 53 47 47 53 52 48 45 37 29 25 19 15 19 23 19 17 14 12 12
7 4 4 6 8 13 10 11 14 40 39 33 34 33 28 25 23 17 13 9 14 28 44 42 38 39 39 38 40 44 48 48 52 56 58 56 45 32 32 31 15 23 28 24 19 17 14 13 12
5 2 5 8 11 5 6 10 13 25 40 38 39 40 37 36 28 20 16 9 8 19 29 33 40 42 43 43 40 38 37 46 50 57 57 60 38 38 36 25 28 29 27 21 20 19 16 14 14
4 2 6 8 4 2 8 3 4 15 21 32 33 41 44 41 39 34 26 17 10 5 18 29 29 35 39 42 46 41 37 42 49 39 54 58 48 42 34 23 29 26 24 25 24 21 19 18 18
6 7 8 9 9 3 10 5 7 9 26 30 37 36 42 45 50 49 45 39 25 13 6 12 22 26 30 35 41 44 42 35 38 38 54 60 50 48 40 31 33 27 29 27 26 23 22 21 21
6 8 6 7 5 5 5 8 9 7 9 15 29 37 41 47 51 54 55 51 41 33 24 12 7 9 12 20 30 37 39 39 34 33 42 59 59 50 46 34 36 35 32 30 28 26 24 24 25
11 5 4 2 6 4 3 4 8 14 5 4 14 28 36 41 48 54 58 59 54 41 33 24 9 1 10 10 19 29 32 34 35 33 34 46 47 43 34 38 44 33 36 33 31 29 27 26 28
7 7 12 8 5 3 14 13 8 11 12 8 3 22 31 37 42 48 52 54 56 55 46 35 24 14 5 15 14 15 25 32 33 32 34 38 44 44 42 42 39 46 38 36 34 33 31 29 30
5 10 6 9 6 12 6 7 12 4 14 14 13 17 26 32 37 43 49 53 55 58 56 52 39 26 16 7 16 19 20 24 29 31 35 38 43 44 51 42 48 50 34 40 38 36 34 31 32
10 14 11 13 5 7 3 11 8 7 26 23 15 14 20 28 33 37 42 46 48 50 51 50 46 42 31 16 10 17 22 29 29 30 32 36 38 39 40 40 34 42 42 43 42 40 36 33 33
6 7 8 13 1 5 7 5 4 9 11 17 11 11 16 22 28 30 33 38 42 44 46 46 44 41 37 34 24 18 21 27 30 30 29 30 32 30 35 40 38 49 48 45 46 43 37 35 34
7 9 4 4 4 10 8 9 9 21 19 12 8 2 8 15 20 24 26 30 33 36 37 37 38 40 38 34 30 28 23 25 29 33 31 32 31 28 32 41 43 46 45 49 49 44 38 36 34
2 2 3 4 9 9 2 10 5 24 21 19 16 10 2 10 16 19 20 24 27 30 31 33 34 33 31 33 32 29 28 24 26 31 33 33 34 31 32 33 47 47 49 53 49 45 39 36 33
5 4 3 7 10 5 5 13 15 11 28 34 19 13 4 9 14 18 19 22 24 29 32 33 33 34 34 33 31 32 31 30 28 28 32 36 36 36 34 34 39 49 49 53 51 45 40 36 31
Wind_Direction_850mb
232 214 181 127 62 57 253 245 238 278 320 3 319 319 263 273 191 235 218 123 154 196 188 185 178 178 182 178 176 176 177 180 176 177 178 180 178 173 170 171 167 162 163 157 153 142 145 160 164
228 193 157 103 110 146 263 278 248 248 284 319 316 253 250 269 257 290 151 147 159 191 194 190 180 179 182 179 177 176 175 178 181 180 177 176 176 175 172 165 153 141 133 135 137 150 160 172 171
206 168 145 132 169 190 213 234 260 292 308 318 298 262 241 241 245 296 200 188 163 180 198 191 184 181 182 181 180 180 177 176 180 180 178 179 176 173 167 158 150 142 143 157 155 164 170 187 217
160 150 91 125 225 258 209 247 198 323 325 328 337 296 247 218 235 222 206 195 180 178 185 187 185 180 185 183 181 178 179 179 179 179 178 169 163 167 168 169 169 174 175 162 159 167 188 214 255
162 133 89 262 263 276 266 276 291 307 302 291 310 284 281 217 209 214 223 209 194 182 182 185 182 184 186 185 182 180 182 177 173 162 166 167 176 173 174 177 171 174 174 174 172 194 217 250 285
118 106 82 247 277 284 295 272 273 251 289 295 298 257 255 237 207 216 214 200 194 183 186 189 188 187 186 185 185 182 182 184 175 169 175 183 181 179 179 177 182 188 185 185 187 223 265 284 290
125 95 196 265 276 307 254 323 239 300 308 312 291 245 271 235 211 199 189 197 189 178 182 197 199 190 184 190 185 186 190 191 183 180 185 187 185 183 185 188 189 193 196 217 247 268 283 289 295
129 93 91 253 227 258 31 351 338 1 307 338 319 290 315 323 221 227 223 222 197 200 191 196 206 202 192 189 191 190 190 191 196 199 191 190 190 191 191 194 199 214 229 249 265 278 285 292 297
120 67 214 239 186 254 355 20 331 332 306 342 358 14 339 318 197 216 220 215 216 211 209 201 205 206 204 195 197 199 198 198 201 207 196 191 193 195 200 207 216 233 250 265 279 289 295 298 300
114 158 216 218 235 272 312 299 331 327 323 322 323 10 5 355 193 226 233 232 232 231 225 213 207 214 212 210 204 200 203 205 210 210 202 198 200 204 212 222 234 247 260 271 282 290 294 297 302
174 208 210 249 276 329 295 305 280 315 307 295 297 310 321 341 265 242 239 253 256 244 236 239 222 217 226 225 217 210 209 213 216 216 215 212 217 216 219 226 235 252 265 278 286 288 292 298 302
277 267 281 298 307 317 304 312 290 252 264 294 296 301 301 316 308 284 271 257 253 251 246 240 234 238 275 239 227 230 223 225 231 224 225 226 227 226 226 224 231 246 270 282 282 286 295 299 302
207 265 272 278 290 284 274 265 272 285 299 287 281 281 293 294 290 283 284 258 252 244 250 245 239 243 239 235 222 230 240 233 243 236 235 227 229 227 223 232 232 250 266 275 278 286 293 298 301
302 282 280 289 288 281 258 282 355 13 0 342 296 286 301 334 330 276 264 265 252 245 247 246 244 246 246 248 237 240 242 241 243 251 245 239 224 219 217 231 248 244 264 275 280 289 294 298 300
299 316 327 293 338 319 287 327 204 317 348 359 2 350 329 331 315 297 261 245 248 254 251 247 245 243 250 248 256 249 251 240 243 245 248 246 236 216 214 230 256 252 249 282 283 287 292 296 296
11 54 3 307 3 13 38 274 262 336 343 335 341 325 320 325 315 303 295 251 238 238 248 250 251 244 250 253 255 252 255 249 261 254 246 251 231 212 205 229 250 241 273 284 283 283 285 290 286
10 250 245 321 63 50 61 284 345 342 339 356 26 20 357 344 327 317 314 287 244 240 242 248 251 257 254 252 252 254 257 246 264 261 242 238 215 207 198 222 239 272 271 272 272 273 279 284 278
219 227 270 267 312 4 320 278 1 22 47 40 37 38 40 35 26 9 339 310 249 243 244 244 247 257 253 249 251 254 254 241 249 258 246 244 210 205 221 212 225 262 256 254 259 266 274 275 268
113 164 258 265 282 259 256 346 19 31 38 26 23 25 35 38 36 34 23 353 246 234 236 240 239 244 247 243 249 256 254 245 246 248 243 248 214 230 233 231 237 240 247 256 262 269 268 261 250
156 225 267 284 253 282 356 68 81 37 47 40 23 21 21 37 44 43 38 37 30 262 245 243 243 235 241 244 247 256 260 253 248 263 252 239 224 216 213 232 249 249 258 263 267 268 264 257 246
220 193 199 218 328 314 356 266 214 73 54 50 48 47 47 39 41 43 43 39 36 31 338 270 247 237 240 244 246 253 257 252 252 254 247 239 223 212 199 214 247 251 257 259 263 264 262 259 254
291 226 192 168 114 231 60 276 213 129 60 34 37 42 41 45 49 47 46 45 42 36 24 344 280 239 280 265 264 256 257 267 276 272 270 243 239 209 211 208 239 245 255 260 262 262 263 262 259
232 138 138 113 113 46 269 77 278 137 146 32 17 46 45 45 46 46 47 48 47 47 42 36 32 176 217 244 264 259 262 265 268 270 270 263 242 230 224 220 234 245 257 261 263 264 262 262 260
133 108 46 42 81 354 218 174 229 190 176 170 65 54 47 44 46 48 47 48 49 49 50 50 47 43 318 257 252 261 264 265 269 275 273 269 259 242 232 231 241 251 252 260 262 262 262 264 263
106 76 329 348 7 225 346 149 257 145 131 145 136 68 50 45 42 41 40 40 40 43 44 45 44 41 31 331 298 275 258 269 277 280 280 280 275 265 242 222 243 240 253 262 262 262 262 265 268
187 159 163 214 211 268 104 233 280 124 133 131 113 69 53 48 42 38 36 35 35 35 36 38 39 40 30 12 347 291 285 265 264 271 277 282 283 280 263 240 229 247 260 262 263 262 263 267 269
194 184 169 109 108 42 238 300 177 142 156 153 130 64 47 38 36 36 33 30 28 26 26 27 26 28 28 26 10 326 304 282 269 264 263 271 280 279 262 250 230 251 260 258 261 259 262 267 269
170 152 126 4 157 236 279 279 251 194 192 180 191 120 42 29 27 27 25 24 22 19 17 15 13 15 13 12 11 3 334 297 286 272 264 259 265 269 266 253 254 237 259 254 256 257 259 267 271
59 248 36 139 154 182 242 255 333 212 178 165 196 207 322 5 7 6 7 7 7 7 6 5 3 3 4 360 355 353 350 326 295 282 267 252 248 250 259 259 256 236 257 254 252 256 258 264 267
285 288 174 171 237 224 156 259 340 145 150 165 191 212 322 323 332 339 336 343 350 354 357 360 356 354 353 352 347 339 338 337 319 288 274 264 248 245 251 254 253 247 239 253 248 252 257 261 264